Weather History for Marietta, GA

Change the Weather History Date:

Tuesday, January 21, 2014

  Actual Average Record
Temperature  
Mean Temperature 35 °F -  
Max Temperature 47 °F 49 °F 71 °F (1999)
Min Temperature 22 °F 31 °F 17 °F (2009)
Degree Days  
Heating Degree Days 30    
Moisture  
Dew Point 23 °F    
Average Humidity 57    
Maximum Humidity 66    
Minimum Humidity 41    
Precipitation  
Precipitation 0.00 in - - ()
Sea Level Pressure  
Sea Level Pressure 29.89 in    
Wind  
Wind Speed 12 mph (WNW)    
Max Wind Speed 23 mph    
Max Gust Speed 36 mph    
Visibility 10 miles    
Events Rain , Snow    
Averages and records for this station are not official NWS values.
T = Trace of Precipitation, MM = Missing Value Source: NWS Daily Summary

Daily Weather History Graph

Daily Weather History Graph

Search for Another Location

Airport:

Trip Planner

Search our weather history database for the weather conditions in past years. The results will help you decide how hot, cold, wet, or windy it might be!

Date:

Astronomy

Jan. 21, 2014 Rise Set
Actual Time 7:41 AM EST 5:58 PM EST
Civil Twilight 7:14 AM EST 6:24 PM EST
Nautical Twilight 6:43 AM EST 6:55 PM EST
Astronomical Twilight 6:14 AM EST 7:25 PM EST
Moon 11:12 PM EST (1/21) 10:26 AM EST (1/21)
Length of Visible Light 11h 10m
Length of Day
10h 16m
Waning Gibbous, 75% of the Moon is Illuminated
Jan 21
Waning Gibbous
Jan 24
Last Quarter
Jan 30
New
Feb 6
First Quarter
Feb 14
Full

Hourly Weather History & Observations

Time (EST) Temp. Windchill Dew Point Humidity Pressure Visibility Wind Dir Wind Speed Gust Speed Precip Events Conditions
12:58 AM 43.7 °F 41.1 °F 27.0 °F 52% 29.85 in 10.0 mi SW 4.6 mph - N/A   Clear
1:58 AM 45.0 °F 41.2 °F 27.9 °F 51% 29.84 in 10.0 mi WSW 6.9 mph - N/A   Clear
2:58 AM 44.4 °F 42.0 °F 27.5 °F 52% 29.82 in 10.0 mi WSW 4.6 mph - N/A   Clear
3:58 AM 44.8 °F 41.0 °F 28.0 °F 52% 29.79 in 10.0 mi SW 6.9 mph - N/A   Clear
4:58 AM 43.7 °F 39.7 °F 28.4 °F 55% 29.76 in 10.0 mi SW 6.9 mph - N/A   Scattered Clouds
5:58 AM 45.0 °F 40.1 °F 28.6 °F 53% 29.75 in 10.0 mi West 9.2 mph - N/A   Partly Cloudy
6:58 AM 43.7 °F 39.7 °F 29.1 °F 57% 29.75 in 10.0 mi WSW 6.9 mph - N/A   Scattered Clouds
7:58 AM 39.9 °F 33.9 °F 29.5 °F 66% 29.75 in 10.0 mi West 9.2 mph - N/A   Partly Cloudy
8:58 AM 46.4 °F 40.1 °F 31.5 °F 56% 29.76 in 10.0 mi WNW 15.0 mph 20.7 mph N/A   Clear
9:58 AM 47.7 °F - 30.0 °F 50% 29.79 in 10.0 mi NW 12.7 mph 31.1 mph N/A   Partly Cloudy
10:58 AM 46.6 °F - 28.8 °F 50% 29.82 in 10.0 mi NW 17.3 mph 31.1 mph N/A   Mostly Cloudy
11:58 AM 47.8 °F - 25.2 °F 41% 29.81 in 10.0 mi WNW 21.9 mph 31.1 mph N/A   Mostly Cloudy
12:58 PM 45.0 °F 37.1 °F 24.3 °F 44% 29.81 in 10.0 mi NW 19.6 mph 28.8 mph N/A   Overcast
1:58 PM 43.2 °F 34.7 °F 26.6 °F 52% 29.81 in 10.0 mi WNW 19.6 mph 33.4 mph N/A   Mostly Cloudy
2:41 PM 42.8 °F 34.3 °F 28.4 °F 57% 29.80 in 10.0 mi WNW 19.6 mph 35.7 mph N/A   Unknown
2:50 PM 41.0 °F 32.5 °F 30.2 °F 65% 29.81 in 10.0 mi WNW 17.3 mph 35.7 mph N/A   Mostly Cloudy
2:58 PM 41.0 °F 31.4 °F 28.4 °F 61% 29.83 in 10.0 mi WNW 21.9 mph 29.9 mph 0.00 in   Mostly Cloudy
3:50 PM 41.0 °F 31.1 °F 26.6 °F 57% 29.83 in 10.0 mi West 23.0 mph 29.9 mph N/A Rain Light Rain
3:58 PM 39.6 °F 30.0 °F 25.9 °F 58% 29.86 in 10.0 mi WNW 19.6 mph 29.9 mph 0.00 in   Mostly Cloudy
4:58 PM 37.4 °F 27.8 °F 22.6 °F 55% 29.92 in 10.0 mi NW 17.3 mph 25.3 mph 0.00 in   Overcast
5:53 PM 32.0 °F 20.5 °F 21.2 °F 64% 29.92 in 10.0 mi WNW 18.4 mph 23.0 mph N/A   Overcast
5:58 PM 33.1 °F 21.2 °F 21.2 °F 62% 29.94 in 10.0 mi WNW 20.7 mph 27.6 mph N/A   Overcast
6:48 PM 32.0 °F 22.5 °F 19.4 °F 60% 29.96 in 10.0 mi NW 12.7 mph 29.9 mph N/A   Overcast
6:53 PM 32.0 °F 22.1 °F 19.4 °F 60% 29.96 in 10.0 mi WNW 13.8 mph 19.6 mph N/A   Overcast
6:58 PM 30.6 °F 18.2 °F 18.7 °F 61% 29.99 in 10.0 mi WNW 19.6 mph 32.2 mph N/A   Overcast
7:58 PM 27.7 °F 14.5 °F 16.0 °F 62% 30.02 in 10.0 mi NNW 19.6 mph 28.8 mph N/A   Overcast
8:58 PM 26.4 °F 13.2 °F 14.5 °F 61% 30.03 in 10.0 mi NW 18.4 mph 23.0 mph N/A   Overcast
9:08 PM 26.6 °F 12.7 °F 14.0 °F 59% 30.00 in 10.0 mi NW 20.7 mph 31.1 mph N/A   Overcast
9:23 PM 26.6 °F 12.4 °F 14.0 °F 59% 30.00 in 10.0 mi NW 21.9 mph 26.5 mph N/A   Overcast
9:37 PM 24.8 °F 11.1 °F 14.0 °F 64% 30.01 in 10.0 mi NW 18.4 mph 31.1 mph N/A Snow Light Snow
9:58 PM 25.2 °F 12.9 °F 14.0 °F 63% 30.04 in 10.0 mi NNW 15.0 mph 23.0 mph 0.00 in Snow Light Snow
10:02 PM 24.8 °F 15.3 °F 14.0 °F 64% 30.01 in 10.0 mi NNW 9.2 mph 17.3 mph N/A   Overcast
10:58 PM 23.7 °F 10.5 °F 12.2 °F 61% 30.05 in 10.0 mi NW 16.1 mph 24.2 mph 0.00 in   Overcast
11:55 PM 22.8 °F 9.4 °F 11.3 °F 61% 30.05 in 10.0 mi NNW 16.1 mph 23.0 mph 0.00 in   Overcast